Погода Kemi I

Погода Kemi I : погода сейчас, прогноз погоды и архив. Всё, что Вы хотите узнать о погоде Kemi I!

Поиск расширенной информации на нашем сайте:

Другие новости

Новости СМИ2

Главная страница сайта

Новости сайта

03.07.2017

Напоминаем, что на нашем специализированном сайте Метеоцентр.Азия вы можете получить высокодетализированные автоматические прогнозы погоды по пунктам России, СНГ и мира в авиационном формате (включающие направление и скорость ветра, видимость, явления погоды, количество и форму облачности, нижнюю и верхнюю границу облачности).


Погода Kemi I - сегодня

Время (UTC), дата Ветер
(°,м/с) 
Видим.   Явления Облачность Т
(°С)
Тd
(°С)
f(%) Тe
(°С)
Pmin
(гПа)
dP
(гПа)
Po
(мм)
O2
(г/м3)
Тmin Tmax R s Состояние
почвы
18 16.07.18 210 (ЮЗ) н/о    н/о 
+20.7 +14.8 69 +29  1017.4  0.5  762  282  +19.2  +21.1       
00 17.07.18 340 (С) н/о    н/о 
+20 +15.3 74 +29  1018.6  0.6  762  283           
03 17.07.18 070 (В) н/о    н/о 
+20.5 +16.6 78 +32  1019.3  0.7  763  282           
06 17.07.18 040 (СВ) н/о    н/о 
+20.7 +17.4 81 +33  1019.6  0.3  763  282  +19.9  +20.8       
09 17.07.18 050 (СВ) н/о    н/о 
+21.5 +16 71 +31  1019.3  -0.3  763  282           
12 17.07.18 070 (В) н/о    н/о 
+24.7 +14.6 53 +32  1018.7  -0.6  763  279           
15 17.07.18 050 (СВ) н/о    н/о 
+26.3 +14.4 48 +34  1018.1  -0.6  762  277           
18 17.07.18 040 (СВ) н/о    н/о 
+27.6 +11.6 37 +31  1017.7  -0.4  762  277  +20.7  +27.6       
21 17.07.18 050 (СВ) н/о    н/о 
+26.8 +17 55 +39  1017.9  0.2  762  276           
00 18.07.18 110 (В) н/о    н/о 
+24.5 +19.1 72 +41  1018.6  0.6  762  277           
06 18.07.18 130 (ЮВ) н/о    н/о 
+22.1 +18.1 78 +36  1019.2  0.5  763  280  +22.1  +27.8       
12 18.07.18 090 (В) н/о    н/о 
+24.5 +16.3 60 +35  1018.4  -1  762  278           
15 18.07.18 070 (В) н/о    н/о 
+26.7 +8.4 31 +27  1017.2  -1.3  761  278           
18 18.07.18 070 (В) н/о    н/о 
+26.5 +11 38 +29  1016.4  -0.8  761  277  +22  +26.9       
21 18.07.18 110 (В) н/о    н/о 
+26 +14.8 50 +34  1016.5  0.2  761  277           
00 19.07.18 120 (ЮВ) н/о    н/о 
+23.6 +17.4 68 +36  1017  0.4  761  278           
06 19.07.18 130 (ЮВ) н/о    н/о 
+21 +15.9 73 +31  1017  0.3  761  281  +20.9  +26.9       
12 19.07.18 070 (В) н/о    н/о 
+24.2 +12.9 49 +29  1016.5  -0.8  761  279           
15 19.07.18 360 (С) н/о    н/о 
+24.9 +15.2 55 +34  1015  -1.5  760  277           
18 19.07.18 060 (СВ) н/о    н/о 
+25.1 +16.6 59 +36  1014.4  -0.5  759  277  +21  +26       
00 20.07.18 130 (ЮВ) н/о    н/о 
+23.3 +16.1 64 +34  1014.8  0.1  760  279           
03 20.07.18 150 (ЮВ) н/о    н/о 
+21.6 +16.8 74 +33  1014.6  -0.2  759  280           
06 20.07.18 130 (ЮВ) н/о    н/о 
+21.4 +16.6 74 +33  1014.4  -0.2  759  280  +21.3  +26.3       
12 20.07.18 030 (СВ) н/о    н/о 
+23.2 +18.7 76 +39  1013.1  -1.1  758  277           
15 20.07.18 360 (С) н/о    н/о 
+24.5 +17.4 65 +37  1011.5  -1.6  757  276           
Время (UTC), дата Ветер
(°,м/с) 
Видим.   Явления Облачность Т
(°С)
Тd
(°С)
f(%) Тe
(°С)
Pmin
(гПа)
dP
(гПа)
Po
(мм)
O2
(г/м3)
Тmin Tmax R s Состояние
почвы

Для получения пояснительной информации подведите курсор к названию столбца.

ПОГОДА Kemi I - архив

Всё, что Вы хотите узнать о погоде Kemi I - удобно и подробно!

Выберите нужную дату (начиная с 1 января 2015* года) и нажмите кнопку "Найти".
Будут отображены архивные сводки погоды по пункту Kemi I, начиная с указанной даты.


Отображать данные в формате CSV (для использования в таблицах Excel)


Внимание! Наш архив погоды предназначен исключительно для личного некоммерческого использования в познавательных целях. Если Вам необходимы официальные справки о состоянии погоды (для производственных, юридических, коммерческих и т.п. целей), обращайтесь в органы Росгидромета.

*Примечание: данная дата относится к архиву по метеостанциям СССР (Россия, СНГ, Балтия).
Архив по метеостанциям Зарубежной Европы и Азии (кроме Китая) хранится 10 дней, по другим регионам земного шара (Китай, Африка, Америка, Австралия, Океания) - 1 день.

Kemi I - район местоположения метеостанции


Название, широта, долгота, высота метеостанции:
Kemi I 65.4°ш. 24.1°д. 13 м над ур. моря [Finland]

Дополнительная информация

В oтличие oт бoльшинства пoгoдных сайтoв мы публикуем пoдрoбную метеoинфoрмацию в детальнoм прoфессиoнальнoм фoрмате.

Характеристики температуры и влажнoсти вoздуха измеряются на высoте 2 м в тени вдали oт зданий и деревьев.
Скoрoсть ветра измеряется на высoте 10 м (на урoвне рoста челoвека скoрoсть ветра ниже в 1.5-2 раза). Если метеoстанция нахoдится в гoрoде или в лесу, тo скoрoсть ветра занижена на 2-4 м/с пo сравнению с oткрытым местoм. Скoрoсть ветра над акватoриями крупных рек и oзёр, а также на вершинах хoлмoв на 2-5 м/с выше, чем в oбычных услoвиях.
Атмoсфернoе давление в разных тoчках местнoсти мoжет значительнo oтличаться oт давления на метеoстанции, в зависимoсти oт услoвий рельефа (при пoдъёме на 10 м давление пoнижается примернo на 1 мм рт.ст.).